Location: Neuvy Saint Sepulchre
(46.5953°N, 1.8122°E)
Time: 09:46:40
(UTC+01:00)

Envisat - Pass Details

Date: 27 October 2021
Orbit: 764 x 766 km, 98.2° (Epoch: 28 November)

Event Time Altitude Azimuth Distance (km) Brightness Sun altitude
Rises 07:45:03 0° 7° (N) 3,243 6.2 -7.9°
Reaches altitude 10° 07:47:27 10° 1° (N) 2,312 5.4 -7.5°
Maximum altitude 07:52:15 43° 291° (WNW) 1,065 3.3 -6.7°
Drops below altitude 10° 07:57:01 10° 221° (SW) 2,296 5.2 -5.9°
Sets 07:59:24 0° 215° (SW) 3,218 6.0 -5.5°
